Time,TemperatureF,DewpointF,PressureIn,WindDirection,WindDirectionDegrees,WindSpeedMPH,WindSpeedGustMPH,Humidity,HourlyPrecipIn,Conditions,Clouds,dailyrainin,SoftwareType,DateUTC
2013-02-19 00:02:00,10.0,1.0,30.05,NW,310,18.0,23.0,66,-99.99,,,-99.99,,2013-02-19 06:02:00,
2013-02-19 00:11:00,10.0,1.0,30.05,NW,310,18.0,23.0,66,-99.99,,,-99.99,,2013-02-19 06:11:00,
2013-02-19 00:22:00,10.0,1.0,30.05,NW,310,18.0,23.0,66,-99.99,,,-99.99,,2013-02-19 06:22:00,
2013-02-19 00:32:00,9.0,1.0,30.07,WNW,300,22.0,28.0,71,-99.99,,,-99.99,,2013-02-19 06:32:00,
2013-02-19 00:42:00,9.0,1.0,30.07,WNW,300,22.0,28.0,71,-99.99,,,-99.99,,2013-02-19 06:42:00,
2013-02-19 00:52:00,9.0,0.0,30.07,WNW,300,24.0,31.0,66,-99.99,,,-99.99,,2013-02-19 06:52:00,
2013-02-19 01:01:00,9.0,0.0,30.07,WNW,300,24.0,31.0,66,-99.99,,,-99.99,,2013-02-19 07:01:00,
2013-02-19 01:11:00,9.0,0.0,30.08,NW,310,22.0,30.0,66,-99.99,,,-99.99,,2013-02-19 07:11:00,
2013-02-19 01:22:00,9.0,0.0,30.08,NW,310,22.0,30.0,66,-99.99,,,-99.99,,2013-02-19 07:22:00,
2013-02-19 01:32:00,9.0,0.0,30.08,NW,310,23.0,30.0,66,-99.99,,,-99.99,,2013-02-19 07:32:00,
2013-02-19 01:42:00,9.0,0.0,30.08,NW,310,23.0,30.0,66,-99.99,,,-99.99,,2013-02-19 07:42:00,
2013-02-19 01:52:00,9.0,0.0,30.09,NW,310,18.0,30.0,66,-99.99,,,-99.99,,2013-02-19 07:52:00,
2013-02-19 02:02:00,9.0,0.0,30.09,NW,310,18.0,30.0,66,-99.99,,,-99.99,,2013-02-19 08:02:00,
2013-02-19 02:11:00,9.0,0.0,30.09,NW,310,18.0,30.0,66,-99.99,,,-99.99,,2013-02-19 08:11:00,
2013-02-19 02:21:00,9.0,0.0,30.09,NW,310,18.0,30.0,66,-99.99,,,-99.99,,2013-02-19 08:21:00,
2013-02-19 02:31:00,9.0,0.0,30.10,NW,310,20.0,29.0,66,-99.99,,,-99.99,,2013-02-19 08:31:00,
2013-02-19 02:42:00,9.0,0.0,30.10,NW,310,20.0,29.0,66,-99.99,,,-99.99,,2013-02-19 08:42:00,
2013-02-19 02:52:00,9.0,0.0,30.10,WNW,300,22.0,32.0,66,-99.99,,,-99.99,,2013-02-19 08:52:00,
2013-02-19 03:01:00,9.0,0.0,30.10,WNW,300,22.0,32.0,66,-99.99,,,-99.99,,2013-02-19 09:01:00,
2013-02-19 03:11:00,9.0,0.0,30.10,WNW,300,22.0,32.0,66,-99.99,,,-99.99,,2013-02-19 09:11:00,
2013-02-19 03:22:00,9.0,0.0,30.10,WNW,300,22.0,32.0,66,-99.99,,,-99.99,,2013-02-19 09:22:00,
2013-02-19 03:32:00,9.0,0.0,30.12,NW,310,18.0,30.0,66,-99.99,,,-99.99,,2013-02-19 09:32:00,
2013-02-19 03:42:00,9.0,0.0,30.12,NW,310,18.0,30.0,66,-99.99,,,-99.99,,2013-02-19 09:42:00,
2013-02-19 03:53:00,9.0,0.0,30.13,NW,310,18.0,25.0,66,-99.99,,,-99.99,,2013-02-19 09:53:00,
2013-02-19 04:01:00,9.0,0.0,30.13,NW,310,18.0,25.0,66,-99.99,,,-99.99,,2013-02-19 10:01:00,
2013-02-19 04:11:00,9.0,0.0,30.13,NW,310,18.0,25.0,66,-99.99,,,-99.99,,2013-02-19 10:11:00,
2013-02-19 04:21:00,9.0,0.0,30.13,NW,310,18.0,25.0,66,-99.99,,,-99.99,,2013-02-19 10:21:00,
2013-02-19 04:31:00,7.0,-2.0,30.14,NW,310,18.0,28.0,65,-99.99,,,-99.99,,2013-02-19 10:31:00,
2013-02-19 04:42:00,7.0,-2.0,30.14,NW,310,18.0,28.0,65,-99.99,,,-99.99,,2013-02-19 10:42:00,
2013-02-19 04:52:00,5.0,-2.0,30.15,WNW,300,17.0,24.0,71,-99.99,,,-99.99,,2013-02-19 10:52:00,
2013-02-19 05:01:00,5.0,-2.0,30.15,WNW,300,17.0,24.0,71,-99.99,,,-99.99,,2013-02-19 11:01:00,
2013-02-19 05:11:00,5.0,-2.0,30.15,WNW,300,17.0,24.0,71,-99.99,,,-99.99,,2013-02-19 11:11:00,
2013-02-19 05:22:00,5.0,-2.0,30.15,WNW,300,17.0,24.0,71,-99.99,,,-99.99,,2013-02-19 11:22:00,
2013-02-19 05:32:00,5.0,-4.0,30.16,NW,310,21.0,25.0,65,-99.99,,,-99.99,,2013-02-19 11:32:00,
2013-02-19 05:42:00,5.0,-4.0,30.16,NW,310,21.0,25.0,65,-99.99,,,-99.99,,2013-02-19 11:42:00,
2013-02-19 05:52:00,5.0,-2.0,30.17,NW,310,18.0,24.0,71,-99.99,,,-99.99,,2013-02-19 11:52:00,
2013-02-19 06:01:00,5.0,-2.0,30.17,NW,310,18.0,24.0,71,-99.99,,,-99.99,,2013-02-19 12:01:00,
2013-02-19 06:12:00,5.0,-4.0,30.17,NW,310,21.0,25.0,65,-99.99,,,-99.99,,2013-02-19 12:12:00,
2013-02-19 06:22:00,5.0,-4.0,30.17,NW,310,21.0,25.0,65,-99.99,,,-99.99,,2013-02-19 12:22:00,
2013-02-19 06:32:00,5.0,-4.0,30.18,WNW,290,24.0,29.0,65,-99.99,,,-99.99,,2013-02-19 12:32:00,
2013-02-19 06:42:00,5.0,-4.0,30.18,WNW,290,24.0,29.0,65,-99.99,,,-99.99,,2013-02-19 12:42:00,
2013-02-19 06:52:00,3.0,-6.0,30.19,WNW,300,23.0,29.0,65,-99.99,,,-99.99,,2013-02-19 12:52:00,
2013-02-19 07:02:00,3.0,-6.0,30.19,WNW,300,23.0,29.0,65,-99.99,,,-99.99,,2013-02-19 13:02:00,
2013-02-19 07:11:00,1.0,-8.0,30.21,WNW,300,18.0,25.0,65,-99.99,,,-99.99,,2013-02-19 13:11:00,
2013-02-19 07:22:00,1.0,-8.0,30.21,WNW,300,18.0,25.0,65,-99.99,,,-99.99,,2013-02-19 13:22:00,
2013-02-19 07:32:00,1.0,-8.0,30.22,WNW,300,18.0,24.0,65,-99.99,,,-99.99,,2013-02-19 13:32:00,
2013-02-19 07:42:00,1.0,-8.0,30.22,WNW,300,18.0,24.0,65,-99.99,,,-99.99,,2013-02-19 13:42:00,
2013-02-19 07:52:00,0.0,-9.0,30.24,WNW,300,16.0,21.0,64,-99.99,,,-99.99,,2013-02-19 13:52:00,
2013-02-19 08:01:00,0.0,-9.0,30.24,WNW,300,16.0,21.0,64,-99.99,,,-99.99,,2013-02-19 14:01:00,
2013-02-19 08:11:00,0.0,-9.0,30.24,WNW,300,18.0,23.0,64,-99.99,,,-99.99,,2013-02-19 14:11:00,
2013-02-19 08:21:00,0.0,-9.0,30.24,WNW,300,18.0,23.0,64,-99.99,,,-99.99,,2013-02-19 14:21:00,
2013-02-19 08:32:00,0.0,-9.0,30.24,NW,310,20.0,25.0,64,-99.99,,,-99.99,,2013-02-19 14:32:00,
2013-02-19 08:42:00,0.0,-9.0,30.24,NW,310,20.0,25.0,64,-99.99,,,-99.99,,2013-02-19 14:42:00,
2013-02-19 08:52:00,1.0,-9.0,30.25,WNW,300,23.0,-999.0,59,-99.99,,,-99.99,,2013-02-19 14:52:00,
2013-02-19 09:01:00,1.0,-9.0,30.25,WNW,300,23.0,-999.0,59,-99.99,,,-99.99,,2013-02-19 15:01:00,
2013-02-19 09:11:00,1.0,-9.0,30.25,WNW,300,23.0,-999.0,59,-99.99,,,-99.99,,2013-02-19 15:11:00,
2013-02-19 09:21:00,1.0,-9.0,30.25,WNW,300,23.0,-999.0,59,-99.99,,,-99.99,,2013-02-19 15:21:00,
2013-02-19 09:32:00,1.0,-9.0,30.26,NW,310,20.0,29.0,59,-99.99,,,-99.99,,2013-02-19 15:32:00,
2013-02-19 09:42:00,1.0,-9.0,30.26,NW,310,20.0,29.0,59,-99.99,,,-99.99,,2013-02-19 15:42:00,
2013-02-19 09:52:00,1.0,-9.0,30.27,NW,310,17.0,25.0,59,-99.99,,,-99.99,,2013-02-19 15:52:00,
2013-02-19 10:02:00,1.0,-9.0,30.27,NW,310,17.0,25.0,59,-99.99,,,-99.99,,2013-02-19 16:02:00,
2013-02-19 10:11:00,3.0,-8.0,30.28,NW,310,18.0,27.0,59,-99.99,,,-99.99,,2013-02-19 16:11:00,
2013-02-19 10:22:00,3.0,-8.0,30.28,NW,310,18.0,27.0,59,-99.99,,,-99.99,,2013-02-19 16:22:00,
2013-02-19 10:32:00,3.0,-9.0,30.29,WNW,300,21.0,27.0,54,-99.99,,,-99.99,,2013-02-19 16:32:00,
2013-02-19 10:41:00,3.0,-9.0,30.29,WNW,300,21.0,27.0,54,-99.99,,,-99.99,,2013-02-19 16:41:00,
2013-02-19 10:51:00,3.0,-8.0,30.29,WNW,300,22.0,27.0,59,-99.99,,,-99.99,,2013-02-19 16:51:00,
2013-02-19 11:01:00,3.0,-8.0,30.29,WNW,300,22.0,27.0,59,-99.99,,,-99.99,,2013-02-19 17:01:00,
2013-02-19 11:11:00,3.0,-8.0,30.29,WNW,300,22.0,27.0,59,-99.99,,,-99.99,,2013-02-19 17:11:00,
2013-02-19 11:21:00,3.0,-8.0,30.29,WNW,300,22.0,27.0,59,-99.99,,,-99.99,,2013-02-19 17:21:00,
2013-02-19 11:32:00,5.0,-8.0,30.30,NW,310,17.0,24.0,55,-99.99,,,-99.99,,2013-02-19 17:32:00,
2013-02-19 11:42:00,5.0,-8.0,30.30,NW,310,17.0,24.0,55,-99.99,,,-99.99,,2013-02-19 17:42:00,
2013-02-19 11:52:00,5.0,-8.0,30.30,NW,310,20.0,25.0,55,-99.99,,,-99.99,,2013-02-19 17:52:00,
2013-02-19 12:01:00,5.0,-8.0,30.30,NW,310,20.0,25.0,55,-99.99,,,-99.99,,2013-02-19 18:01:00,
2013-02-19 12:11:00,5.0,-8.0,30.30,NW,310,20.0,25.0,55,-99.99,,,-99.99,,2013-02-19 18:11:00,
2013-02-19 12:21:00,5.0,-8.0,30.30,NW,310,20.0,25.0,55,-99.99,,,-99.99,,2013-02-19 18:21:00,
2013-02-19 12:31:00,7.0,-8.0,30.31,NW,310,15.0,23.0,50,-99.99,,,-99.99,,2013-02-19 18:31:00,
2013-02-19 12:42:00,7.0,-8.0,30.31,NW,310,15.0,23.0,50,-99.99,,,-99.99,,2013-02-19 18:42:00,
2013-02-19 12:52:00,9.0,-6.0,30.31,NW,310,17.0,25.0,51,-99.99,,,-99.99,,2013-02-19 18:52:00,
2013-02-19 13:01:00,9.0,-6.0,30.31,NW,310,17.0,25.0,51,-99.99,,,-99.99,,2013-02-19 19:01:00,
2013-02-19 13:11:00,9.0,-6.0,30.31,NW,310,17.0,25.0,51,-99.99,,,-99.99,,2013-02-19 19:11:00,
2013-02-19 13:21:00,9.0,-6.0,30.31,NW,310,17.0,25.0,51,-99.99,,,-99.99,,2013-02-19 19:21:00,
2013-02-19 13:31:00,9.0,-6.0,30.30,WNW,300,18.0,27.0,51,-99.99,,,-99.99,,2013-02-19 19:31:00,
2013-02-19 13:42:00,9.0,-6.0,30.30,WNW,300,18.0,27.0,51,-99.99,,,-99.99,,2013-02-19 19:42:00,
2013-02-19 13:52:00,9.0,-6.0,30.30,WNW,300,20.0,27.0,51,-99.99,,,-99.99,,2013-02-19 19:52:00,
2013-02-19 14:01:00,9.0,-6.0,30.30,WNW,300,20.0,27.0,51,-99.99,,,-99.99,,2013-02-19 20:01:00,
2013-02-19 14:12:00,9.0,-6.0,30.30,WNW,300,20.0,27.0,51,-99.99,,,-99.99,,2013-02-19 20:12:00,
2013-02-19 14:21:00,9.0,-6.0,30.30,WNW,300,20.0,27.0,51,-99.99,,,-99.99,,2013-02-19 20:21:00,
2013-02-19 14:32:00,10.0,-6.0,30.30,NW,310,15.0,22.0,47,-99.99,,,-99.99,,2013-02-19 20:32:00,
2013-02-19 14:42:00,10.0,-6.0,30.30,NW,310,15.0,22.0,47,-99.99,,,-99.99,,2013-02-19 20:42:00,
2013-02-19 14:52:00,10.0,-4.0,30.30,NW,310,15.0,20.0,51,-99.99,,,-99.99,,2013-02-19 20:52:00,
2013-02-19 15:02:00,10.0,-4.0,30.30,NW,310,15.0,20.0,51,-99.99,,,-99.99,,2013-02-19 21:02:00,
2013-02-19 15:11:00,10.0,-4.0,30.30,NW,310,15.0,20.0,51,-99.99,,,-99.99,,2013-02-19 21:11:00,
2013-02-19 15:21:00,10.0,-4.0,30.30,NW,310,15.0,20.0,51,-99.99,,,-99.99,,2013-02-19 21:21:00,
2013-02-19 15:32:00,12.0,-2.0,30.31,NW,320,12.0,18.0,51,-99.99,,,-99.99,,2013-02-19 21:32:00,
2013-02-19 15:42:00,12.0,-2.0,30.31,NW,320,12.0,18.0,51,-99.99,,,-99.99,,2013-02-19 21:42:00,
2013-02-19 15:52:00,12.0,-4.0,30.31,NNW,340,16.0,-999.0,47,-99.99,,,-99.99,,2013-02-19 21:52:00,
2013-02-19 16:02:00,12.0,-4.0,30.31,NNW,340,16.0,-999.0,47,-99.99,,,-99.99,,2013-02-19 22:02:00,
2013-02-19 16:11:00,12.0,-2.0,30.30,NNW,340,14.0,18.0,51,-99.99,,,-99.99,,2013-02-19 22:11:00,
2013-02-19 16:21:00,12.0,-2.0,30.30,NNW,340,14.0,18.0,51,-99.99,,,-99.99,,2013-02-19 22:21:00,
2013-02-19 16:32:00,10.0,-4.0,30.31,NW,320,13.0,18.0,51,-99.99,,,-99.99,,2013-02-19 22:32:00,
2013-02-19 16:41:00,10.0,-4.0,30.31,NW,320,13.0,18.0,51,-99.99,,,-99.99,,2013-02-19 22:41:00,
2013-02-19 16:51:00,10.0,-4.0,30.31,NW,320,12.0,17.0,51,-99.99,,,-99.99,,2013-02-19 22:51:00,
2013-02-19 17:01:00,10.0,-4.0,30.31,NW,320,12.0,17.0,51,-99.99,,,-99.99,,2013-02-19 23:01:00,
2013-02-19 17:11:00,10.0,-4.0,30.31,NW,320,12.0,17.0,51,-99.99,,,-99.99,,2013-02-19 23:11:00,
2013-02-19 17:21:00,10.0,-4.0,30.31,NW,320,12.0,17.0,51,-99.99,,,-99.99,,2013-02-19 23:21:00,
2013-02-19 17:32:00,10.0,-4.0,30.31,NNW,330,10.0,16.0,51,-99.99,,,-99.99,,2013-02-19 23:32:00,
2013-02-19 17:42:00,10.0,-4.0,30.31,NNW,330,10.0,16.0,51,-99.99,,,-99.99,,2013-02-19 23:42:00,
2013-02-19 17:52:00,9.0,-4.0,30.31,NNW,330,13.0,-999.0,55,-99.99,,,-99.99,,2013-02-19 23:52:00,
2013-02-19 18:01:00,9.0,-4.0,30.31,NNW,330,13.0,-999.0,55,-99.99,,,-99.99,,2013-02-20 00:01:00,
2013-02-19 18:11:00,9.0,-4.0,30.31,NNW,330,9.0,-999.0,55,-99.99,,,-99.99,,2013-02-20 00:11:00,
2013-02-19 18:21:00,9.0,-4.0,30.31,NNW,330,9.0,-999.0,55,-99.99,,,-99.99,,2013-02-20 00:21:00,
2013-02-19 18:32:00,7.0,-6.0,30.31,NNW,340,8.0,-999.0,55,-99.99,,,-99.99,,2013-02-20 00:32:00,
2013-02-19 18:42:00,7.0,-6.0,30.31,NNW,340,8.0,-999.0,55,-99.99,,,-99.99,,2013-02-20 00:42:00,
2013-02-19 18:51:00,7.0,-6.0,30.32,NNW,330,7.0,-999.0,55,-99.99,,,-99.99,,2013-02-20 00:51:00,
2013-02-19 19:02:00,7.0,-6.0,30.32,NNW,330,7.0,-999.0,55,-99.99,,,-99.99,,2013-02-20 01:02:00,
2013-02-19 19:11:00,7.0,-6.0,30.32,NNW,330,7.0,-999.0,55,-99.99,,,-99.99,,2013-02-20 01:11:00,
2013-02-19 19:21:00,7.0,-6.0,30.32,NNW,330,7.0,-999.0,55,-99.99,,,-99.99,,2013-02-20 01:21:00,
2013-02-19 19:32:00,5.0,-4.0,30.33,NNW,330,5.0,-999.0,65,-99.99,,,-99.99,,2013-02-20 01:32:00,
2013-02-19 19:42:00,5.0,-4.0,30.33,NNW,330,5.0,-999.0,65,-99.99,,,-99.99,,2013-02-20 01:42:00,
2013-02-19 19:52:00,5.0,-6.0,30.33,NW,320,6.0,-999.0,60,-99.99,,,-99.99,,2013-02-20 01:52:00,
2013-02-19 20:01:00,5.0,-6.0,30.33,NW,320,6.0,-999.0,60,-99.99,,,-99.99,,2013-02-20 02:01:00,
2013-02-19 20:11:00,5.0,-6.0,30.33,NW,320,6.0,-999.0,60,-99.99,,,-99.99,,2013-02-20 02:11:00,
2013-02-19 20:21:00,5.0,-6.0,30.33,NW,320,6.0,-999.0,60,-99.99,,,-99.99,,2013-02-20 02:21:00,
2013-02-19 20:32:00,3.0,-6.0,30.33,NW,310,6.0,-999.0,65,-99.99,,,-99.99,,2013-02-20 02:32:00,
2013-02-19 20:42:00,3.0,-6.0,30.33,NW,310,6.0,-999.0,65,-99.99,,,-99.99,,2013-02-20 02:42:00,
2013-02-19 20:52:00,3.0,-6.0,30.34,NNW,330,5.0,-999.0,65,-99.99,,,-99.99,,2013-02-20 02:52:00,
2013-02-19 21:01:00,3.0,-6.0,30.34,NNW,330,5.0,-999.0,65,-99.99,,,-99.99,,2013-02-20 03:01:00,
2013-02-19 21:12:00,3.0,-6.0,30.34,NNW,330,5.0,-999.0,65,-99.99,,,-99.99,,2013-02-20 03:12:00,
2013-02-19 21:22:00,3.0,-6.0,30.34,NNW,330,5.0,-999.0,65,-99.99,,,-99.99,,2013-02-20 03:22:00,
2013-02-19 21:32:00,3.0,-6.0,30.34,North,350,6.0,-999.0,65,-99.99,,,-99.99,,2013-02-20 03:32:00,
2013-02-19 21:42:00,3.0,-6.0,30.34,North,350,6.0,-999.0,65,-99.99,,,-99.99,,2013-02-20 03:42:00,
2013-02-19 21:52:00,1.0,-8.0,30.34,North,-99,7.0,-999.0,65,-99.99,,,-99.99,,2013-02-20 03:52:00,
2013-02-19 22:01:00,1.0,-8.0,30.34,North,-99,7.0,-999.0,65,-99.99,,,-99.99,,2013-02-20 04:01:00,
2013-02-19 22:11:00,1.0,-8.0,30.34,North,-99,7.0,-999.0,65,-99.99,,,-99.99,,2013-02-20 04:11:00,
2013-02-19 22:21:00,1.0,-8.0,30.34,North,-99,7.0,-999.0,65,-99.99,,,-99.99,,2013-02-20 04:21:00,
2013-02-19 22:31:00,1.0,-8.0,30.36,North,350,7.0,-999.0,65,-99.99,,,-99.99,,2013-02-20 04:31:00,
2013-02-19 22:42:00,1.0,-8.0,30.36,North,350,7.0,-999.0,65,-99.99,,,-99.99,,2013-02-20 04:42:00,
2013-02-19 22:52:00,1.0,-9.0,30.36,North,10,5.0,-999.0,59,-99.99,,,-99.99,,2013-02-20 04:52:00,
2013-02-19 23:02:00,1.0,-9.0,30.36,North,10,5.0,-999.0,59,-99.99,,,-99.99,,2013-02-20 05:02:00,
2013-02-19 23:12:00,1.0,-9.0,30.36,North,10,5.0,-999.0,59,-99.99,,,-99.99,,2013-02-20 05:12:00,
2013-02-19 23:22:00,1.0,-9.0,30.36,North,10,5.0,-999.0,59,-99.99,,,-99.99,,2013-02-20 05:22:00,
2013-02-19 23:32:00,0.0,-9.0,30.37,North,10,9.0,-999.0,64,-99.99,,,-99.99,,2013-02-20 05:32:00,
2013-02-19 23:43:00,0.0,-9.0,30.37,North,10,9.0,-999.0,64,-99.99,,,-99.99,,2013-02-20 05:43:00,
2013-02-19 23:52:00,0.0,-9.0,30.37,NNE,30,6.0,-999.0,64,-99.99,,,-99.99,,2013-02-20 05:52:00,